Regional Weather Roundup
Issued by NWS

Home | Current Version | Previous Version | Graphics & Text | Print | Product List | Glossary On
Versions: 1 2 3 4 5 6 7 8 9 10 11 12 13 14 15 16 17 18 19 20 21 22 23 24 25 26 27 28 29 30 31 32 33 34 35 36 37 38 39 40 41 42 43 44 45 46 47 48 49 50
000
ASUS45 KABQ 262201
RWRNM
NEW MEXICO REGIONAL WEATHER ROUNDUP
NATIONAL WEATHER SERVICE ALBUQUERQUE NM
400 PM MDT TUE MAY 26 2015

NOTE: "FAIR" MEANS FEW OR NO CLOUDS BELOW 12,000 FEET AGL WITH NO
       SIGNIFICANT WEATHER OR OBSTRUCTIONS TO VISION.

      THIS PRODUCT IS RELEASED AS TWO VERSIONS.  ONE VERSION NEAR
      THE TOP OF THE HOUR CONTAINING PRELIMINARY DATA FROM ALBUQUERQUE
      AND OTHER STATIONS.  A FINAL VERSION WITH ADDITIONAL DATA IS
      ISSUED ABOUT 10 MINUTES AFTER THE HOUR.

NMZ501-503-504-510>518-262300-
NORTHWEST PLATEAU/NORTHCENTRAL MOUNTAINS

CITY           SKY/WX    TMP DP  RH WIND       PRES   REMARKS
FARMINGTON     SUNNY     74  34  23 W10G21    30.06S
SANTA FE       PTSUNNY   71  29  21 MISG      30.09F
TAOS           PTSUNNY   70  30  23 W14G22    30.13F
ANGEL FIRE     FAIR      61  34  36 W14G21    30.21S

$$
NMZ402-403-502-505>509-262300-
WESTCENTRAL MOUNTAINS/SOUTHWEST MOUNTAINS

CITY           SKY/WX    TMP DP  RH WIND       PRES   REMARKS
GALLUP         MOSUNNY   69  31  24 W7        30.14S
GRANTS         PTSUNNY   72  30  21 NE6       30.14F
SILVER CITY      N/A     81  25  12 W8        30.11S

$$
NMZ407-409-411-412-262300-
SOUTHERN DESERTS

CITY           SKY/WX    TMP DP  RH WIND       PRES   REMARKS
LORDSBURG      FAIR      84  27  12 W7        30.01F
DEMING         MOSUNNY   86  25  11 W14G22    30.02F
HOLLOMAN AFB   MOSUNNY   81  33  17 SE5       30.02F
ALAMOGORDO     PTSUNNY   81  30  16 SW5       30.04F
T OR C         MOSUNNY   81  31  16 S9G26     30.02F

$$
NMZ519>523-262300-
CENTRAL VALLEYS/CENTRAL HIGHLANDS

CITY           SKY/WX    TMP DP  RH WIND       PRES   REMARKS
ALBUQUERQUE    PTSUNNY   74  40  29 SW8       30.08F
DOUBLE EAGLE   PTSUNNY   72  39  30 W8        30.11F
MORIARTY ARPT  FAIR      74  32  21 W9        30.12F
CLINES CORNERS NOT AVBL
BELEN          FAIR      76  37  24 CALM      30.07F
SOCORRO        NOT AVBL

$$
NMZ524>526-539-540-262300-
SOUTHCENTRAL MOUNTAINS

CITY           SKY/WX    TMP DP  RH WIND       PRES   REMARKS
RUIDOSO        NOT AVBL

$$
NMZ527>531-262300-
NORTHEAST HIGHLANDS/NORTHEAST PLAINS

CITY           SKY/WX    TMP DP  RH WIND       PRES   REMARKS
LAS VEGAS      MOSUNNY   71  37  28 S20G36    30.08F
RATON          MOSUNNY   69  38  32 S13G22    30.06F
CLAYTON        MOSUNNY   73  45  36 CALM      30.04F

$$
NMZ532>537-262300-
EASTCENTRAL PLAINS

CITY           SKY/WX    TMP DP  RH WIND       PRES   REMARKS
TUCUMCARI      SUNNY     78  46  32 SE8       30.00F
CANNON AFB     NOT AVBL
CLOVIS AIRPORT SUNNY     77  48  36 S7          N/A

$$
NMZ028-029-538-262300-
SOUTHEAST PLAINS

CITY           SKY/WX    TMP DP  RH WIND       PRES   REMARKS
ROSWELL        MOSUNNY   86  37  17 SE7       29.96F
ARTESIA        MOSUNNY   86  37  17 SE14G24   29.97F
CARLSBAD       MOSUNNY   90  34  13 W10       29.95F
HOBBS          SUNNY     82  39  21 SW14      30.02S


$$


USA.gov is the U.S. government's official web portal to all federal, state and local government web resources and services.